Hourly Data Report for May 30, 2016

LA RONGE RCS
SASKATCHEWAN

55°08'47.020" N
105°16'13.030" W
378.60 m
4064149
71586
XOX

Download Data

Hourly Data (May 2016)
Hourly Data Report for May 30, 2016
TIME
LST
Temp Definition
°C
Dew Point Definition
°C
Rel Hum Definition
%
Precip. Amount Definition
mm

Wind Dir Definition
10's deg

Wind Spd Definition
km/h
Visibility Definition
km
Stn Press Definition
kPa
Hmdx Definition


Wind Chill Definition


Weather Definition


00:00 6.5 4.8 89 0.0 12 3   96.95     LegendNANA
01:00 9.3 7.0 86 0.0 4 11   96.99     LegendNANA
02:00 8.5 6.2 86 0.0 7 9   96.98     LegendNANA
03:00 7.3 5.5 88 0.0 7 5   97.02     LegendNANA
04:00 6.6 5.4 92 0.0 6 3   97.06     LegendNANA
05:00 6.4 5.4 93 0.0 5 3   97.10     LegendNANA
06:00 8.0 6.5 91 0.0 36 2   97.13     LegendNANA
07:00 9.4 7.0 85 0.0 5 14   97.13     LegendNANA
08:00 10.7 7.5 80 0.0 5 10   97.16     LegendNANA
09:00 11.5 7.7 78 0.0 6 12   97.18     LegendNANA
10:00 12.6 6.8 68 0.0 7 10   97.22     LegendNANA
11:00 14.0 4.9 54 0.0 5 14   97.21     LegendNANA
12:00 15.2 6.1 55 0.0 7 14   97.22     LegendNANA
13:00 14.1 6.1 59 0.0 6 15   97.25     LegendNANA
14:00 14.7 6.5 58 0.0 6 15   97.27     LegendNANA
15:00 14.6 7.2 61 0.0 8 17   97.28     LegendNANA
16:00 13.6 7.8 68 0.0 7 21   97.30     LegendNANA
17:00 13.7 8.8 72 0.0 5 21   97.31     LegendNANA
18:00 12.5 8.4 76 0.0 6 20   97.34     LegendNANA
19:00 12.1 8.4 78 0.0 6 15   97.38     LegendNANA
20:00 11.6 8.4 81 0.0 6 13   97.42     LegendNANA
21:00 11.1 8.7 85 0.0 6 13   97.42     LegendNANA
22:00 11.1 8.8 86 0.0 6 12   97.46     LegendNANA
23:00 11.0 8.8 86 0.0 3 12   97.45     LegendNANA

Notes on Data Quality.

Legend

  • E = Estimated
  • M = Missing
  • NA = Not Available*
  • [empty] = Indicates an unobserved value
Date modified: